DW1735 Seatac WA US current weather conditions

sailwx.info

Wind from 116

Air temperature 8.9° C
Dewpoint 8.3° C

Last reported at 2019-Dec-08 01:45 UTC.
Time now 2019-Dec-08 02:21 UTC

Location: N 47°26' W 122°20'.
View on Google Maps.

See reports from other nearby stations

  
Tides and Currents Weather Stations Pressure Air Temp Water Temp Dewpoint Dewpoint Depression Visibility Wind Speed Wind Dir Waves Ship Positions
date/time (UTC)wind fromknots sea level pressurealtimeterstation pressurevisibilityair tempwater tempwave heightnotes
2019-Dec-08 01:45 116 8.9
2019-Dec-08 01:30 116 8.9
2019-Dec-08 01:15 116 8.9
2019-Dec-08 01:00 116 0 gusting 2 8.9
2019-Dec-08 00:45 116 0 gusting 5 8.9
2019-Dec-08 00:30 116 1 gusting 3 8.9
2019-Dec-08 00:16 116 1 gusting 3 8.9
2019-Dec-08 00:02 116 0 gusting 2 9.4
2019-Dec-07 23:47 116 0 gusting 3 9.4
2019-Dec-07 23:32 116 1 gusting 3 9.4
2019-Dec-07 23:16 116 9.4
2019-Dec-07 23:01 116 9.4
2019-Dec-07 22:47 116 9.4
2019-Dec-07 22:32 116 9.4
2019-Dec-07 22:17 116 1 gusting 6 9.4
2019-Dec-07 22:01 111 1 gusting 5 8.9
2019-Dec-07 21:46 111 0 gusting 3 8.9
2019-Dec-07 21:32 111 0 gusting 2 8.9
2019-Dec-07 21:16 111 2 gusting 3 8.3
2019-Dec-07 21:02 111 1 gusting 3 8.3
2019-Dec-07 20:46 111 0 gusting 3 8.3
2019-Dec-07 20:31 111 1 gusting 5 8.3
2019-Dec-07 20:16 111 1 gusting 5 8.3
2019-Dec-07 20:01 111 8.3
2019-Dec-07 19:46 111 8.3
2019-Dec-07 19:31 111 7.8
2019-Dec-07 19:16 111 7.8
2019-Dec-07 19:00 111 7.8
2019-Dec-07 18:46 111 2 gusting 5 7.2
2019-Dec-07 18:31 111 2 gusting 6 7.2
2019-Dec-07 18:15 111 3 gusting 6 7.2
2019-Dec-07 18:01 104 3 gusting 6 7.2
2019-Dec-07 17:45 098 2 gusting 6 7.2
2019-Dec-07 17:31 090 2 gusting 6 7.2
2019-Dec-07 17:15 097 2 gusting 6 7.2
2019-Dec-07 17:00 098 3 gusting 7 7.2
2019-Dec-07 16:45 103 2 gusting 6 7.2
2019-Dec-07 16:30 103 1 gusting 5 7.2
2019-Dec-07 16:15 109 4 gusting 6 7.2
2019-Dec-07 16:00 110 4 gusting 7 7.2
2019-Dec-07 15:45 115 4 gusting 8 7.2
2019-Dec-07 15:30 113 5 gusting 9 7.2
2019-Dec-07 15:15 113 4 gusting 9 7.2
2019-Dec-07 15:00 095 5 gusting 10 7.2
2019-Dec-07 14:45 108 5 gusting 10 7.2
2019-Dec-07 14:30 132 5 gusting 9 7.2
2019-Dec-07 14:15 136 5 gusting 11 7.2
2019-Dec-07 14:00 119 6 gusting 10 7.8
2019-Dec-07 13:45 140 6 gusting 10 7.2
2019-Dec-07 13:30 144 5 gusting 9 7.2
2019-Dec-07 13:15 107 5 gusting 8 7.2
2019-Dec-07 13:00 139 5 gusting 7 7.2
2019-Dec-07 12:46 136 2 gusting 8 7.2
2019-Dec-07 12:31 121 3 gusting 7 7.2
2019-Dec-07 12:16 110 4 gusting 8 7.2
2019-Dec-07 12:02 111 4 gusting 9 7.2
2019-Dec-07 11:47 134 2 gusting 6 7.2
2019-Dec-07 11:32 124 3 gusting 7 7.8
2019-Dec-07 11:16 122 2 gusting 5 7.8
2019-Dec-07 11:01 123 1 gusting 6 7.8
2019-Dec-07 10:47 123 2 gusting 5 7.8
2019-Dec-07 10:31 122 2 gusting 6 7.8
2019-Dec-07 10:16 120 2 gusting 6 7.8
2019-Dec-07 10:00 123 2 gusting 6 8.3
2019-Dec-07 09:45 176 2 gusting 4 8.3
2019-Dec-07 09:31 204 1 gusting 2 8.3
2019-Dec-07 09:15 204 8.3
2019-Dec-07 09:00 204 1 gusting 5 8.3
2019-Dec-07 08:46 204 2 gusting 4 8.3
2019-Dec-07 08:30 201 0 gusting 6 8.3
2019-Dec-07 08:15 128 3 gusting 6 8.3
2019-Dec-07 08:01 125 2 gusting 3 8.3
2019-Dec-07 07:45 125 0 gusting 1 8.9
2019-Dec-07 07:30 125 8.9
2019-Dec-07 07:15 115 1 gusting 5 8.9
2019-Dec-07 07:00 115 2 gusting 5 8.9
2019-Dec-07 06:45 115 1 gusting 3 8.9
2019-Dec-07 06:30 115 8.9
2019-Dec-07 06:00 115 0 gusting 3 8.9
2019-Dec-07 05:45 115 1 gusting 6 8.3
2019-Dec-07 05:30 116 1 gusting 5 8.3
2019-Dec-07 05:15 119 1 gusting 5 8.3
2019-Dec-07 05:00 119 8.3
2019-Dec-07 04:45 119 0 gusting 2 8.3
2019-Dec-07 04:30 119 1 gusting 3 8.3
2019-Dec-07 04:15 119 2 gusting 3 8.3
2019-Dec-07 04:00 119 0 gusting 2 8.3
2019-Dec-07 03:45 119 8.3
2019-Dec-07 03:30 119 8.9
2019-Dec-07 03:15 119 0 gusting 2 8.3
2019-Dec-07 03:00 119 1 gusting 5 8.3
2019-Dec-07 02:45 119 0 gusting 3 8.3
2019-Dec-07 02:30 119 1 gusting 5 8.3
2019-Dec-07 02:15 119 0 gusting 5 8.9
2019-Dec-07 02:02 126 3 gusting 8 8.9
2019-Dec-07 01:47 105 5 gusting 9 8.9
2019-Dec-07 01:33 111 2 gusting 6 8.9
2019-Dec-07 01:18 112 6 gusting 8 8.9
2019-Dec-07 01:02 150 2 gusting 6 8.9
2019-Dec-07 00:47 150 1 gusting 5 8.9
2019-Dec-07 00:31 150 2 gusting 5 8.9
2019-Dec-07 00:16 150 1 gusting 5 8.9
2019-Dec-07 00:01 150 0 gusting 2 8.9
2019-Dec-06 23:46 150 5 gusting 6 8.9
2019-Dec-06 23:31 177 3 gusting 5 8.9
2019-Dec-06 23:15 178 2 gusting 4 9.4
2019-Dec-06 23:02 178 2 gusting 6 9.4
2019-Dec-06 22:46 194 3 gusting 5 10.0
2019-Dec-06 22:33 203 4 gusting 7 10.0
2019-Dec-06 22:17 181 3 gusting 6 10.0
2019-Dec-06 22:01 114 0 gusting 2 9.4
2019-Dec-06 21:47 114 0 gusting 3 9.4
2019-Dec-06 21:31 114 1 gusting 3 9.4
2019-Dec-06 21:16 106 1 gusting 3 9.4
2019-Dec-06 21:01 105 1 gusting 3 9.4
2019-Dec-06 20:46 105 1 gusting 3 9.4
2019-Dec-06 20:31 099 2 gusting 5 12.2
2019-Dec-06 20:15 076 1 gusting 7 12.2
2019-Dec-06 19:46 137 0 gusting 1 10.0
2019-Dec-06 19:31 137 0 gusting 1 8.9
2019-Dec-06 19:16 137 1 gusting 3 9.4
2019-Dec-06 19:00 136 1 gusting 4 10.6
2019-Dec-06 18:46 115 2 gusting 6 10.6
2019-Dec-06 18:30 233 0 gusting 5 10.0
2019-Dec-06 18:15 040 8.3
2019-Dec-06 17:45 040 7.2
2019-Dec-06 17:30 040 7.2
2019-Dec-06 17:15 040 0 gusting 2 6.7
2019-Dec-06 17:00 040 0 gusting 2 6.7
2019-Dec-06 16:45 040 6.1
2019-Dec-06 16:30 040 0 gusting 2 6.1
2019-Dec-06 16:17 040 0 gusting 1 6.1
2019-Dec-06 16:01 040 1 gusting 2 6.7
2019-Dec-06 15:47 040 0 gusting 2 6.7
2019-Dec-06 15:33 040 0 gusting 2 6.7
2019-Dec-06 15:17 040 1 gusting 2 6.7
2019-Dec-06 15:01 040 1 gusting 2 6.7
2019-Dec-06 14:46 040 1 gusting 2 6.7
2019-Dec-06 14:32 040 0 gusting 2 6.7
2019-Dec-06 14:17 040 1 gusting 3 6.7
2019-Dec-06 14:01 039 6.7
2019-Dec-06 13:46 039 6.7
2019-Dec-06 13:31 039 6.7
2019-Dec-06 13:17 039 1 gusting 2 6.7
2019-Dec-06 13:01 039 0 gusting 2 6.7
2019-Dec-06 12:46 039 0 gusting 2 6.7
2019-Dec-06 12:32 039 7.2
2019-Dec-06 12:16 039 0 gusting 3 7.2
2019-Dec-06 12:01 039 2 gusting 3 7.2
2019-Dec-06 11:46 039 0 gusting 4 7.2
2019-Dec-06 11:31 039 1 gusting 5 7.2
2019-Dec-06 11:16 040 0 gusting 3 7.2
2019-Dec-06 11:01 040 1 gusting 3 7.2
2019-Dec-06 10:45 035 0 gusting 4 7.2
2019-Dec-06 10:31 041 2 gusting 4 7.2
2019-Dec-06 10:15 037 1 gusting 3 7.2
2019-Dec-06 10:00 037 1 gusting 4 7.2
2019-Dec-06 09:45 038 1 gusting 5 7.2
2019-Dec-06 09:30 017 2 gusting 4 7.2
2019-Dec-06 09:15 013 1 gusting 4 7.2
2019-Dec-06 09:00 013 1 gusting 5 7.2
2019-Dec-06 08:45 058 0 gusting 3 7.2
2019-Dec-06 08:30 059 1 gusting 3 7.2
2019-Dec-06 08:15 059 0 gusting 2 7.2
2019-Dec-06 08:00 059 0 gusting 5 7.2
2019-Dec-06 07:45 061 3 gusting 9 6.7
2019-Dec-06 07:31 251 2 gusting 4 6.7
2019-Dec-06 07:15 250 0 gusting 3 6.7
2019-Dec-06 07:00 250 1 gusting 3 6.7
2019-Dec-06 06:45 250 1 gusting 2 6.7
2019-Dec-06 06:30 250 0 gusting 1 6.7
2019-Dec-06 06:15 250 1 gusting 2 6.7
2019-Dec-06 06:00 250 6.7
2019-Dec-06 05:45 250 6.7
2019-Dec-06 05:30 250 6.7
2019-Dec-06 05:15 250 1 gusting 6 6.7
2019-Dec-06 05:00 250 0 gusting 1 6.7
2019-Dec-06 04:45 250 6.7
2019-Dec-06 04:30 250 6.7
2019-Dec-06 04:15 250 7.2
2019-Dec-06 04:00 250 7.2
2019-Dec-06 03:45 250 7.2
2019-Dec-06 03:30 250 7.2
2019-Dec-06 03:15 250 0 gusting 1 7.2
2019-Dec-06 03:00 250 0 gusting 2 6.7
2019-Dec-06 02:45 250 0 gusting 2 6.7
2019-Dec-06 02:30 250 7.2
2019-Dec-06 02:17 250 0 gusting 2 7.2
2019-Dec-06 02:01 250 7.8